Regional Weather Roundup
Issued by NWS

Home | Current Version | Previous Version | Graphics & Text | Print | Product List | Glossary On
Versions: 1 2 3 4 5 6 7 8 9 10 11 12 13 14 15 16 17 18 19 20 21 22 23 24 25 26 27 28
000
ASUS45 KPSR 232310
RWRAZ

ARIZONA HOURLY REGIONAL WEATHER ROUNDUP
NATIONAL WEATHER SERVICE PHOENIX AZ
400 PM MST MON MAY 23 2016

NOTE: FAIR INDICATES FEW OR NO CLOUDS BELOW 12,000 FEET WITH NO
SIGNIFICANT WEATHER AND/OR OBSTRUCTIONS TO VISIBILITY.

AZZ001>003-036-240000-
NORTHWEST ARIZONA

CITY           SKY/WX    TMP DP  RH WIND       PRES   REMARKS
BULLHEAD CITY  SUNNY     90  23   9 S22       29.70F
KINGMAN        SUNNY     77  16  10 SW20G29   29.82F
$$

AZZ004>008-015-016-018-240000-
NORTH CENTRAL ARIZONA

CITY           SKY/WX    TMP DP  RH WIND       PRES   REMARKS
GRAND CANYON   SUNNY     68  13  12 S10G22    29.94F
WILLIAMS       SUNNY     66   9  10 SW20G31   30.03S
PRESCOTT       SUNNY     71  17  12 S10G20    29.91F
FLAGSTAFF      SUNNY     63  14  15 SW18G25   29.99S
PAYSON         SUNNY     73  12   9 SW9G17    29.95S
PAGE           SUNNY     78  14   9 N9G18     29.78F
$$

AZZ009>014-017-240000-
NORTHEAST ARIZONA

CITY           SKY/WX    TMP DP  RH WIND       PRES   REMARKS
WINSLOW        SUNNY     79  17  10 S15G25    29.86F
SAINT JOHNS    SUNNY     77  23  13 W18G29    29.90F
WINDOW ROCK    SUNNY     72  15  11 SW15G29   29.95F
SHOW LOW       SUNNY     68  23  18 SW22G30   29.98S
$$

AZZ023-240000-
GREATER PHOENIX AREA

CITY           SKY/WX    TMP DP  RH WIND       PRES   REMARKS
PHOENIX        SUNNY     88  23   9 W7        29.73F
BUCKEYE        SUNNY     86  23  10 S8        29.75F
GLENDALE       SUNNY     90  28  11 SW8       29.76F
DEER VALLEY    SUNNY     86  26  11 VRB7      29.75F
SCOTTSDALE     SUNNY     85  22  10 VRB3      29.77F
MESA-FALCON    SUNNY    N/A N/A N/A SW12      29.73F
MESA-GATEWAY   SUNNY     88  25  10 SW9G18    29.76F
CHANDLER       SUNNY     88  25  10 S12       29.75F
$$

AZZ027-028-240000-
SOUTHWEST MARICOPA COUNTY AND PINAL COUNTY

CITY           SKY/WX    TMP DP  RH WIND       PRES   REMARKS
CASA GRANDE    SUNNY     90  28  11 SW12      29.75F
$$

AZZ503-504-507>509-240000-
SOUTHEAST ARIZONA

CITY           SKY/WX    TMP DP  RH WIND       PRES   REMARKS
TUCSON         SUNNY     90  27  10 W16G23    29.80F
RYAN FIELD     SUNNY     90  28  11 SW9G18    29.80F
NOGALES        SUNNY     86  21   9 SW22G29   29.89F
SIERRA VISTA   SUNNY     82  14   7 SW16G23   29.92F
DOUGLAS        SUNNY     87  12   6 SW21G36   29.87F
SAFFORD        SUNNY     88  23   9 CALM      29.77F
$$

AZZ020-021-025-026-031-240000-
SOUTHWEST ARIZONA

CITY           SKY/WX    TMP DP  RH WIND       PRES   REMARKS
YUMA           SUNNY     87  25  10 W10       29.73F
$$

CAZ031-033-041-043-047-048-061-240000-
SOUTHERN CALIFORNIA

CITY           SKY/WX    TMP DP  RH WIND       PRES   REMARKS
DOWNTOWN L.A.  MOSUNNY   70  51  51 VRB5      29.88F
L.A. AIRPORT   MOSUNNY   66  53  63 SW16      29.90F
SAN DIEGO      MOSUNNY   66  48  52 W10       29.95F
BURBANK        SUNNY     69  48  47 SW13      29.88F
ONTARIO        MOSUNNY   72  47  40 SW9       29.86F
RIVERSIDE      MOSUNNY   74  47  38 W12G21    29.86F
PALM SPRINGS   SUNNY     84  40  21 N10G26    29.73F
EL CENTRO NAS  SUNNY     88  29  12 SW13      29.72F
IMPERIAL       SUNNY     88  33  14 W9        29.71F
BLYTHE         SUNNY     90  27  10 S18G25    29.71F
NEEDLES        SUNNY     89  24   9 SW16G22   29.69F
$$

NVZ020-UTZ003-240000-
SOUTHERN NEVADA-UTAH

CITY           SKY/WX    TMP DP  RH WIND       PRES   REMARKS
LAS VEGAS      MOSUNNY   84  22  10 SW17G23   29.67F
SALT LAKE CITY PTSUNNY   66  29  24 SE7       29.84F
$$

NMZ009-TXZ055-240000-
NEW MEXICO-WEST TEXAS

CITY           SKY/WX    TMP DP  RH WIND       PRES   REMARKS
ALBUQUERQUE    MOSUNNY   83  20   9 SW8G20    29.84F
EL PASO        MOSUNNY   92   9   4 W18G28    29.81F
$$


........................KEY........................
SKY/WX - SKY CONDITION/WEATHER
TMP    - TEMPERATURE IN FAHRENHEIT
DP     - DEW POINT IN FAHRENHEIT
RH     - RELATIVE HUMIDITY IN PERCENT
WIND   - DIRECTION AND SPEED IN MILES PER HOUR (MPH)
VRB    - VARIABLE WIND DIRECTION
PRES   - MEAN SEA LEVEL PRESSURE IN INCHES OF MERCURY
         F - FALLING PRESSURE   R - RISING PRESSURE
         S - STEADY PRESSURE
VSB    - VISIBILITY IN MILES
HX     - HEAT INDEX IN FAHRENHEIT
WCI    - WIND CHILL INDEX IN FAHRENHEIT
TC     - TEMPERATURE IN CELSIUS WHICH IS ALSO KNOWN AS
         TEMPERATURE IN CENTIGRADE
AFB    - AIR FORCE BASE
         LUKE AFB IS LUKE AIR FORCE BASE
         DAVIS-MONTHAN IS DAVIS-MONTHAN AIR FORCE BASE
NAS    - NAVAL AIR STATION
         EL CENTRO NAS IS EL CENTRO NAVAL AIR STATION
N/A    - NOT AVAILABLE





USA.gov is the U.S. government's official web portal to all federal, state and local government web resources and services.